MEASAT-3B

Last updated on Fri Feb 06 2026 00:02:51 GMT+0000 (Coordinated Universal Time)

1 40147U 14054B 26036.74577312 -.00000242 00000+0 00000+0 0 9990 2 40147 0.0301 35.6630 0002639 330.7146 129.4791 1.00271041 41597
UTC large
Height (km)
Speed (km/s)
/
Latitude / Longitude
Inclination (degrees)
Orbital Period (minutes)
Azimuth
Elevation
Range (km)
Doppler Factor

Next 0 passes for location: London (51.5072 / 0.1276)

Sorry there are no passes over London.